Weather in Alkino-2

Russia / Republic of Bashkortostan     54°39′16″N   55°35′32″E
temp.,
°C
wind,
m/s
gust,
m/s
humid.,
%
clouds,
%
prec.,
mm/h
press.,
hPa
HPBL,
m
1 march, mon
mon123:00−14nw589683 0.1 1008177
02:00−15nw589699 0.1 1011177
05:00−15nw489597 0.1 1012220
08:00−15wnw469699 0.2 1014188
11:00−15wnw469597 0.3 1016257
14:00−13wnw3492100 0.1 1016336
17:00−14wnw3593100 0.1 1017355
20:00−18wnw239684 0.1 101820
2 march, tue
tue223:00−20wsw239846 0.1 101921
02:00−22sw23963 0.0 101822
05:00−22ssw44962 0.0 101769
08:00−21s599441 0.0 1014194
11:00−18s8129571 0.0 1012324
14:00−12ssw81493100 0.6 1008566
17:00−10ssw81392100 1.1 1005627
20:00−9ssw81593100 0.6 1003564
3 march, wed
wed323:00−6ssw81594100 1.3 1001556
02:00−4ssw61294100 1.0 999533
05:00−4wsw41095100 1.2 998348
08:00−5wsw4109493 0.1 998306
11:00−3wsw698896 0.1 1000674
14:00−4w599197 0.0 1000564
17:00−3w589098 0.1 1001679
20:00−5w4892100 0.1 1001485
4 march, thu
thu423:00−7wsw4109399 0.1 1003242
02:00−7wnw5109496 0.1 1002363
05:00−12w489594 0.2 1004155
08:00−13w499539 0.0 1005147
11:00−11wsw599249 0.0 1005278
14:00−7sw599078 0.0 1005497
17:00−6sw5108989 0.0 1005529
20:00−7ssw6149295 0.1 1004589
5 march, fri
fri523:00−6ssw8159497 0.9 1002787
02:00−4ssw91793100 0.9 998863
05:00−1sw101894100 1.6 9961062
08:00−1sw111891100 0.4 9951111
11:00−1wsw101886100 0.6 9971281
14:00−4w10167746 0.5 10011110
17:00−7w7128552 0.5 1006739
20:00−10w4119175 0.0 1010215